Regional Weather Roundup
Issued by NWS Upton, NY

Home | Current Version | Previous Version | Text Only | Print | Product List | Glossary On
Versions: 1 2 3 4 5 6 7 8 9 10 11 12 13 14 15 16 17 18 19 20 21 22 23 24 25 26 27
000
ASUS41 KOKX 051608
RWROKX

REGIONAL WEATHER ROUNDUP
NATIONAL WEATHER SERVICE NEW YORK NY
1100 AM EST MON DEC 05 2016

NOTE: "FAIR" INDICATES FEW OR NO CLOUDS BELOW 12,000 FEET WITH NO
SIGNIFICANT WEATHER AND/OR OBSTRUCTIONS TO VISIBILITY.

NYZ071-072-176-178-NJZ106-104-051700-
NEW YORK CITY METRO AREA

CITY           SKY/WX    TMP DP  RH WIND       PRES   REMARKS
Central Park   CLOUDY    43  38  82 W9G18     29.99F
Wall St Helipt CLOUDY    44  40  85 W13G25    29.99F
Bronx Bot Gard   N/A     43  37  81 SW5       29.99F
LaGuardia APRT PTSUNNY   46  39  76 W8        29.98F
Kennedy INTL   PTSUNNY   45  40  82 W13       29.99F
Breezy Point     N/A     43 N/A N/A W13G18      N/A
Newark/Liberty PTSUNNY   44  39  82 SW16G25   29.99F
Teterboro      PTSUNNY   45  38  76 W16G22    29.97F
$$

NYZ177-179-078>081-051700-
LONG ISLAND NEW YORK

CITY           SKY/WX    TMP DP  RH WIND       PRES   REMARKS
Jones Beach      N/A     43 N/A N/A W14G20      N/A
Matinecock PT    N/A     45 N/A N/A W20         N/A
Farmingdale    CLOUDY    45  41  86 W10       29.98F
MacArthur/ISP  CLOUDY    44  41  89 W10       29.98F
Shirley        CLOUDY    44  41  89 W10       29.99F
Westhampton    CLOUDY    43  41  93 NW9       30.00F
Southampton      N/A     45  43  93 W5        29.95F
Bridgehampton  NOT AVBL
East Hampton   DRIZZLE   44  43  95 W7        29.97F
Montauk          N/A     46  45  96 SW5       29.98F
$$

NYZ052-065-067-051700-
HUDSON VALLEY

CITY           SKY/WX    TMP DP  RH WIND       PRES   REMARKS
White Plains   PTSUNNY   42  37  82 W12       29.95F
Newburgh       CLOUDY    34  34 100 VRB6      29.96  FOG     WCI  29
Montgomery     CLOUDY    35  32  88 CALM      29.94F
Poughkeepsie   CLOUDY    35  33  92 VRB3      29.96F
Albany         NOT AVBL
$$

NJZ001-105-106-008-010-013-015-019>022-104-051700-
NEW JERSEY

CITY           SKY/WX    TMP DP  RH WIND       PRES   REMARKS
Newark/Liberty PTSUNNY   44  39  82 SW16G25   29.99F
Teterboro      PTSUNNY   45  38  76 W16G22    29.97F
Caldwell       CLOUDY    40  38  93 W8        29.98F WCI  34
Somerville     CLOUDY    41  39  93 CALM      29.99F
Linden         CLOUDY    44  39  84 W15G21    29.99F
Sussex         CLOUDY    36  35  96 SW8       29.95F WCI  30
Andover          N/A     36  35  96 SW10      29.98F WCI  28
Trenton        CLOUDY    44  40  85 W7        30.00F
Millville      CLOUDY    45  44  97 W8        30.01F
Atlantic City  CLOUDY    47  41  80 W9        30.01F
Wrightstown    CLOUDY    44  42  93 W9        29.98F
Toms River     CLOUDY    44  42  93 W13G18    30.01F
Belmar         CLOUDY    44  41  89 W10       30.00F
$$

PAZ047>061-062-071-051700-
EASTERN PENNSYLVANIA

CITY           SKY/WX    TMP DP  RH WIND       PRES   REMARKS
Philadelphia   CLOUDY    44  40  85 W8        30.02F
Allentown      FOG       39  36  89 W6        30.00F VSB 3/4 WCI  35
Scranton       PTSUNNY   39  36  89 SW13      29.95S WCI  31
$$

CTZ002-004>006-009-010-012-RIZ004-006-007-MAZ004-011-015-051700-
SOUTHERN NEW ENGLAND
 IN CT

CITY           SKY/WX    TMP DP  RH WIND       PRES   REMARKS
Bradley INTL   CLOUDY    31  28  89 VRB3      29.97F
Hartford       LGT SNOW  32  32 100 S3        29.98F
Danbury        NOT AVBL
Wtrbury/Oxford CLOUDY    36  34  93 W5        29.96F FOG     WCI  32
Bridgeport     CLOUDY    44  39  82 W5        29.97F
Meriden        CLOUDY    34  31  88 CALM      29.98F FOG
New Haven      CLOUDY    37  37 100 NE3       29.97F FOG
Chester        LGT RAIN  34  34 100 CALM      29.97F VSB 1/2
Groton         LGT RAIN  41  39  93 CALM      29.97F FOG
Wilimantic     CLOUDY    34  32  92 CALM      30.00F FOG

 IN RI

CITY           SKY/WX    TMP DP  RH WIND       PRES   REMARKS
Providence     LGT RAIN  34  32  92 CALM      29.98F FOG
Block Island   LGT RAIN  46  43  89 SW12      29.97F
Westerly       LGT RAIN  38  36  92 CALM      29.98F FOG
 IN MA

CITY           SKY/WX    TMP DP  RH WIND       PRES   REMARKS
Boston         LGT RAIN  36  36 100 SE12      29.99F WCI  28
Worcester      LGT SNOW  29  27  92 VRB3      29.93F FOG
Westfield      CLOUDY    30  28  92 CALM      29.96F
Provincetown     N/A     39  34  82 SE10      30.00F WCI  32
Nantucket      CLOUDY    43  35  73 S13       30.01F
$$

ANZ330-335-338-340-345-350-353-355-051700-
COASTAL MARINE OBSERVATIONS


STATION/POSITION TIME  SKY/WX   TEMP    WIND        PRES    VSBY  WAVE
                                AIR SEA DIR/SP/G                  HT/PER
                 (UTC)          (F)     (DEG/KT/KT) (MB)    (MI)  (FT/S)
NY HARB ENTRANCE 1550            46 53  270/ 16/ 19 1015.4          3/ 5
20 S FIRE ISLAND 1550            47 54  270/ 17/ 19 1015.1          3/ 5
GREAT SOUTH BAY  1515            43 44                N/A
23 SSW MONTAUK P 1550            49 54  230/ 14/ 17 1015.1          3/ 4
15 E BARNEGAT LI 1530               55                N/A           3/ 5
HUDSON CANYON    1450            51 58              1015.8          2/ 4
KINGS POINT      1548            44 47              1014.6
EXECUTION ROCKS  1530            45     240/ 16/ 23   N/A
CENTRAL LI SOUND 1530            42 50  310/  8/ 12   N/A           1/ 2
EASTERN LI SOUND NOT AVBL
ROBBINS REEF     1548            43     270/ 16/ 20 1015.3
$$


>>>>>>>>>>>>>>>>>>>>>>>>>>>> KEY <<<<<<<<<<<<<<<<<<<<<<<<<<<
>                                                          <
>     SKY/WX - Sky Condition/Present Weather               <
>     TMP    - Temperature in Fahrenheit                   <
>     DP     - Dew Point in Fahrenheit                     <
>     RH     - Relative Humidity in Percent                <
>     WIND   - Direction (from) and Speed in MPH           <
>     PRES   - Mean Sea Level Pressure (inches of Hg)      <
>     WCI    - Wind Chill Index                            <
>     VSB    - VISIBILITY IN MILES                         <
>     HX     - HEAT INDEX                                  <
>     TC     - TEMPERATURE IN CELSIUS                      <
>     VRB    - VARIABLE WIND DIRECTION                     <
>                                                          <
>>>>>>>>>>>>>>>>>>>>>>>>>>>> KEY <<<<<<<<<<<<<<<<<<<<<<<<<<<




USA.gov is the U.S. government's official web portal to all federal, state and local government web resources and services.